Simultaneous Nadir Overpasses (SNOs) Predictions

Prediction of SNOs over PacNW region [( 10.00, 139.50) to ( 22.70, 165.60)] between AQUA and NPP Satellites:

Table of predicted SNOs over PacNW region for the next 30.0 days since TLE Epoch: 2/26/2022
Index Date (AQUA) Time (AQUA) AQUA Lat,Lon Date (NPP) Time (NPP) NPP Lat,Lon Distance(km) Time Diff (sec)
1 03/03/2022 15:09:37 22.59, 160.25 03/03/2022 15:11:15 23.27, 157.27 314.10 98
2 03/06/2022 03:31:21 22.68, 147.94 03/06/2022 03:27:51 23.78, 145.50 277.36 210
3 03/11/2022 15:58:41 22.63, 148.01 03/11/2022 16:01:58 23.42, 144.61 359.09 197
4 03/14/2022 02:41:32 22.70, 160.42 03/14/2022 02:38:02 27.03, 157.34 572.81 210
5 03/19/2022 15:08:50 22.62, 160.50 03/19/2022 15:11:15 23.32, 157.27 340.09 145
6 03/22/2022 03:30:32 22.66, 148.20 03/22/2022 03:27:24 22.17, 145.89 243.39 188
